Theta_e
333 331 332 335 334 332 331 332 345 338 338 339 339 343 346 339 339 340 339 339 337 329
327 327 327 328 329 325 335 329 332 333 335 337 338 340 343 338 340 341 340 338 338 336
323 323 323 324 325 326 327 326 326 327 328 331 333 337 341 337 339 339 336 336 336 334
319 319 321 321 322 322 325 323 322 322 323 324 327 330 332 334 337 336 335 335 334 333
317 318 320 318 321 320 320 320 319 319 319 319 320 324 325 325 325 327 330 331 332 330
315 316 317 317 318 318 318 317 318 317 317 317 318 319 320 320 320 322 323 325 327 328
314 315 315 316 316 316 316 316 316 316 315 315 316 316 316 317 319 320 320 322 323 323
312 313 314 314 314 313 312 311 311 311 310 312 312 311 313 311 311 313 314 315 314 315
311 312 311 310 309 309 309 309 308 306 306 306 306 303 303 305 307 308 308 308 310 312
310 307 306 306 305 304 305 306 305 305 304 303 304 300 299 301 304 305 305 306 307 307
306 305 304 303 303 303 303 302 302 303 303 303 303 299 297 298 302 302 303 306 306 309
304 302 302 301 302 303 302 303 303 304 303 303 303 299 297 298 301 301 302 304 305 308
303 303 302 302 302 303 304 304 303 303 304 303 303 300 297 298 301 299 300 304 305 304
303 304 304 303 302 305 304 301 302 303 304 305 305 304 298 297 300 300 300 304 306 308
Wind_Speed
4 2 1 7 6 5 6 7 8 8 8 9 11 11 10 10 11 12 11 14 13 11
5 5 4 5 4 4 4 7 8 10 10 11 11 12 13 12 13 13 13 14 14 13
5 5 5 4 6 7 7 9 10 12 12 12 13 13 14 14 15 16 14 13 16 15
6 7 7 8 9 9 10 11 13 13 14 15 15 14 14 15 17 18 18 17 18 20
9 9 7 8 9 11 13 13 14 16 17 17 17 15 15 17 17 19 19 20 20 22
10 10 11 11 12 13 14 14 15 16 17 17 17 18 17 18 19 18 18 19 19 19
11 12 12 13 13 14 15 15 16 16 17 17 18 18 18 19 18 18 18 18 18 19
13 13 13 14 14 14 14 13 15 15 15 15 14 14 15 15 16 16 16 15 16 16
13 13 13 13 14 14 13 14 14 15 16 17 13 18 16 18 16 16 17 17 18 18
12 12 13 13 15 15 15 14 14 14 16 16 16 17 14 14 17 17 15 17 16 17
11 12 12 13 13 12 11 12 12 13 14 16 14 18 15 18 17 16 18 17 18 20
12 12 13 12 12 12 12 13 14 13 16 17 18 17 16 13 14 15 15 16 16 19
13 13 13 13 14 14 15 15 12 15 17 20 18 18 18 14 10 13 12 15 17 21
13 13 13 15 13 15 12 12 11 15 14 19 15 15 17 16 11 11 11 12 12 8
Wind_Direction
30 96 261 66 5 314 321 313 342 325 305 289 272 266 264 251 250 253 242 241 247 260
67 57 42 17 336 289 323 303 301 317 301 287 279 272 275 267 258 255 249 249 244 240
17 24 360 332 312 309 305 297 292 293 290 285 281 276 268 264 259 253 253 254 253 247
357 347 341 329 319 315 308 301 292 289 287 280 273 269 268 270 272 269 264 254 253 255
341 337 334 322 312 306 300 299 295 288 281 277 276 276 274 273 273 273 271 263 262 258
330 321 316 310 308 305 296 291 288 283 281 283 285 285 281 279 277 277 276 274 271 263
326 321 315 311 304 301 301 300 295 296 296 292 289 286 285 284 283 283 283 283 281 279
316 318 315 310 313 310 306 305 304 300 297 294 294 289 296 313 305 296 290 283 285 286
313 313 314 314 313 309 303 300 295 295 296 292 292 298 308 305 296 293 288 286 284 284
323 325 318 309 303 298 291 294 294 289 284 285 282 280 287 291 289 286 282 279 276 275
315 311 307 305 298 299 297 295 292 291 289 285 283 271 263 264 275 275 271 272 274 270
318 307 314 303 302 301 294 289 293 289 289 283 286 286 274 262 281 281 276 275 277 270
295 308 306 305 299 297 295 287 292 285 286 279 276 277 277 267 272 270 269 271 270 255
306 308 306 296 283 287 288 288 289 290 286 279 275 274 274 262 264 267 270 274 275 277